Home   Weather   Dallas   Past weeks
Flag for USA

Past Weather in Dallas, Texas, USA — Yesterday and Last 2 Weeks

Now
73 °F

Light rain. Cloudy.


Feels Like: 74 °F
Forecast: 78 / 59 °F
Wind: 8 mph from Southeast

Location: Dallas Love Field

Current Time: Oct 14, 2019 at 4:28:57 pm

Latest Report: Oct 14, 2019 at 3:53 pm


Visibility: 10 mi

Pressure: 29.92 "Hg

Humidity: 76%

Dew Point: 65 °F

Location of DallasLocation

Past Weather in Dallas — Graph

°F

Dallas Temperature Yesterday

Maximum temperature yesterday: 77 °F (at 3:53 pm)
Minimum temperature yesterday: 57 °F (at 12:53 am)
Average temperature yesterday: 66 °F

High & Low Weather Summary for the Past Weeks

 TemperatureHumidityPressure
High97 °F (Oct 6, 2:53 pm)90% (Oct 10, 9:53 pm)30.31 "Hg (Oct 10, 9:53 pm)
Low41 °F (Oct 12, 6:40 am)17% (Oct 12, 3:53 pm)29.70 "Hg (Oct 10, 6:53 pm)
Average75 °F56%30.00 "Hg
* Reported Sep 29 2:53 pm — Oct 14 2:53 pm, Dallas. Weather by CustomWeather, © 2019

Note: Actual official high and low records may vary slightly from our data, if they occured in-between our weather recording intervals... More about our weather records

Advertising

Dallas Weather History for the Previous 24 Hours

Scroll right to see more
 ConditionsComfort  
Time TempWeatherWind HumidityBarometerVisibility
2:53 pm
Mon, Oct 14
74 °FCloudy.8 mph69%29.93 "Hg10 mi
1:53 pm74 °FCloudy.10 mph67%29.95 "Hg10 mi
12:53 pm73 °FCloudy.9 mph69%29.97 "Hg10 mi
11:53 am70 °FCloudy.9 mph71%29.98 "Hg10 mi
10:53 am69 °FMostly cloudy.8 mph68%30.00 "Hg10 mi
9:53 am66 °FMostly cloudy.8 mph70%30.00 "Hg10 mi
8:53 am64 °FMostly cloudy.8 mph73%29.99 "Hg10 mi
7:53 am63 °FMore clouds than sun.6 mph73%29.97 "Hg10 mi
6:53 am62 °FOvercast.8 mph75%29.98 "Hg10 mi
5:53 am62 °FMostly cloudy.8 mph73%29.96 "Hg10 mi
4:53 am62 °FMostly cloudy.6 mph73%29.96 "Hg10 mi
3:53 am62 °FPassing clouds.7 mph73%29.97 "Hg10 mi
2:53 am62 °FPassing clouds.9 mph73%29.97 "Hg10 mi
1:53 am63 °FPassing clouds.9 mph68%29.96 "Hg10 mi
12:53 am65 °FPassing clouds.9 mph61%29.98 "Hg10 mi
11:53 pm
Sun, Oct 13
66 °FPassing clouds.8 mph54%29.98 "Hg10 mi
10:53 pm66 °FPassing clouds.7 mph56%29.98 "Hg10 mi
9:53 pm66 °FPassing clouds.6 mph54%29.97 "Hg10 mi
8:53 pm70 °FPassing clouds.5 mph44%29.97 "Hg10 mi
7:53 pm71 °FPassing clouds.12 mph42%29.95 "Hg10 mi
6:53 pm73 °FScattered clouds.8 mph38%29.93 "Hg10 mi
5:53 pm75 °FPassing clouds.12 mph32%29.93 "Hg10 mi
4:53 pm77 °FPassing clouds.10 mph29%29.92 "Hg10 mi
Weather by CustomWeather, © 2019

See weather overview